FW6490 Weather Reports


Display with metric or nautical units.
time (UTC)temp
F
wind
direction
speed
MPH
gust
MPH
rain 1hr
in
rain 24hr
in
rain mn
in
humidity
%
barometer
mb
20260504021638 61 326 1.0 4.0 0.00 0.00 0.00 67 1008.7
20260504020636 61 288 1.0 3.0 0.00 0.00 0.00 65 1008.5
20260504020131 62 286 1.0 3.0 0.00 0.00 0.00 65 1008.5
20260504015629 62 285 2.0 6.0 0.00 0.00 0.00 64 1008.5
20260504014123 63 320 2.0 7.0 0.00 0.00 0.00 62 1008.5
20260504013624 63 320 2.0 7.0 0.00 0.00 0.00 62 1008.5
20260504013126 63 302 2.0 8.0 0.00 0.00 0.00 62 1008.5
20260504012118 63 279 3.0 9.0 0.00 0.00 0.00 62 1008.4
20260504011618 63 275 4.0 9.0 0.00 0.00 0.00 61 1008.4
20260504011116 63 346 4.0 11.0 0.00 0.00 0.00 61 1008.4
20260504010117 63 250 5.0 12.0 0.00 0.00 0.00 60 1008.4
20260504005616 63 303 5.0 11.0 0.00 0.00 0.00 60 1008.2
20260504005119 63 297 5.0 11.0 0.00 0.00 0.00 59 1008.2
20260504004623 64 277 4.0 10.0 0.00 0.00 0.00 60 1008.3
20260504004113 64 269 4.0 12.0 0.00 0.00 0.00 60 1008.1
20260504003612 64 303 5.0 12.0 0.00 0.00 0.00 60 1008.1
20260504003108 64 315 6.0 11.0 0.00 0.00 0.00 60 1008.1
20260504002604 64 306 5.0 10.0 0.00 0.00 0.00 59 1008.1
20260504001603 65 314 5.0 12.0 0.00 0.00 0.00 57 1008.1
20260504001103 65 289 5.0 12.0 0.00 0.00 0.00 56 1008.1
20260503235058 66 313 6.0 10.0 0.00 0.00 0.00 54 1008.0
20260503234556 66 336 6.0 11.0 0.00 0.00 0.00 53 1008.0
20260503234054 66 299 6.0 11.0 0.00 0.00 0.00 53 1007.9
20260503233555 66 316 6.0 11.0 0.00 0.00 0.00 52 1007.9
20260503233050 67 308 6.0 15.0 0.00 0.00 0.00 51 1007.9
20260503232549 66 321 6.0 15.0 0.00 0.00 0.00 53 1007.7
20260503232048 67 298 6.0 11.0 0.00 0.00 0.00 51 1007.7
20260503231547 67 315 7.0 13.0 0.00 0.00 0.00 52 1007.7
20260503231045 67 298 6.0 13.0 0.00 0.00 0.00 50 1007.6
20260503230550 68 311 5.0 12.0 0.00 0.00 0.00 51 1007.6
20260503230050 67 298 5.0 12.0 0.00 0.00 0.00 53 1007.6
20260503225543 67 334 4.0 10.0 0.00 0.00 0.00 53 1007.8
20260503224536 67 268 5.0 12.0 0.00 0.00 0.00 53 1007.8
20260503224035 67 327 4.0 12.0 0.00 0.00 0.00 53 1007.9
20260503223535 67 346 4.0 9.0 0.00 0.00 0.00 53 1007.9
20260503223035 67 325 4.0 9.0 0.00 0.00 0.00 52 1007.9
20260503222535 67 329 4.0 9.0 0.00 0.00 0.00 52 1008.0
20260503222030 67 300 4.0 11.0 0.00 0.00 0.00 54 1008.0
20260503221535 67 329 4.0 11.0 0.00 0.00 0.00 53 1008.0
20260503221034 68 13 4.0 9.0 0.00 0.00 0.00 52 1008.1
20260503220531 68 322 4.0 8.0 0.00 0.00 0.00 52 1008.1
20260503220030 67 342 3.0 8.0 0.00 0.00 0.00 54 1008.1
20260503215522 66 324 3.0 8.0 0.00 0.00 0.00 54 1008.1
20260503214523 65 317 4.0 11.0 0.00 0.00 0.00 56 1008.1
20260503214022 65 342 5.0 11.0 0.00 0.00 0.00 56 1008.1
20260503213519 65 313 4.0 9.0 0.00 0.00 0.00 55 1008.1
20260503213018 66 329 4.0 9.0 0.00 0.00 0.00 56 1008.1
20260503212016 66 355 4.0 9.0 0.00 0.00 0.00 56 1008.1
20260503211011 66 28 3.0 10.0 0.00 0.00 0.00 58 1008.1
20260503210512 66 33 3.0 8.0 0.00 0.00 0.00 58 1008.1
20260503210011 65 17 3.0 8.0 0.00 0.00 0.00 59 1008.1
20260503205508 65 275 4.0 8.0 0.00 0.00 0.00 58 1008.3
20260503204504 65 309 4.0 7.0 0.00 0.00 0.00 57 1008.3
20260503203456 65 327 4.0 11.0 0.00 0.00 0.00 58 1008.5
20260503202957 65 317 4.0 11.0 0.00 0.00 0.00 57 1008.5
20260503202456 66 330 3.0 7.0 0.00 0.00 0.00 59 1008.6
20260503201958 65 313 4.0 9.0 0.00 0.00 0.00 59 1008.6
20260503201459 65 311 4.0 9.0 0.00 0.00 0.00 59 1008.6
20260503200955 66 44 4.0 8.0 0.00 0.00 0.00 58 1008.5
20260503200452 67 327 3.0 7.0 0.00 0.00 0.00 57 1008.5
20260503195952 67 327 3.0 8.0 0.00 0.00 0.00 55 1008.5
20260503194951 67 330 3.0 8.0 0.00 0.00 0.00 56 1008.6
20260503194449 67 315 5.0 8.0 0.00 0.00 0.00 54 1008.6
20260503193944 67 259 4.0 9.0 0.00 0.00 0.00 54 1008.6
20260503193442 68 318 3.0 9.0 0.00 0.00 0.00 54 1008.6
20260503192946 68 329 3.0 7.0 0.00 0.00 0.00 55 1008.6
20260503192438 67 345 3.0 6.0 0.00 0.00 0.00 56 1008.9
20260503191937 66 38 3.0 8.0 0.00 0.00 0.00 57 1008.9
20260503191433 66 337 3.0 8.0 0.00 0.00 0.00 59 1008.9
20260503190929 66 333 3.0 9.0 0.00 0.00 0.00 59 1008.9
20260503190427 66 5 4.0 9.0 0.00 0.00 0.00 59 1008.9
20260503185925 66 322 4.0 8.0 0.00 0.00 0.00 57 1008.9
20260503185425 67 327 3.0 7.0 0.00 0.00 0.00 57 1008.9
20260503184919 67 339 3.0 9.0 0.00 0.00 0.00 56 1008.9
20260503184419 67 10 3.0 9.0 0.00 0.00 0.00 57 1008.9
20260503183922 66 17 3.0 6.0 0.00 0.00 0.00 58 1009.1
20260503183420 65 321 3.0 6.0 0.00 0.00 0.00 58 1009.1
20260503182913 65 257 3.0 6.0 0.00 0.00 0.00 59 1009.1
20260503182410 65 280 2.0 6.0 0.00 0.00 0.00 61 1009.2
20260503181910 65 290 2.0 6.0 0.00 0.00 0.00 63 1009.2
20260503181409 65 290 2.0 6.0 0.00 0.00 0.00 62 1009.2
20260503180909 65 289 2.0 6.0 0.00 0.00 0.00 64 1009.2
20260503175908 63 279 2.0 7.0 0.00 0.00 0.00 68 1009.1
20260503175408 63 313 2.0 6.0 0.00 0.00 0.00 67 1009.1
20260503174907 64 313 2.0 6.0 0.00 0.00 0.00 65 1009.1
20260503174410 63 289 2.0 5.0 0.00 0.00 0.00 68 1009.1
20260503173901 63 288 2.0 7.0 0.00 0.00 0.00 67 1009.1
20260503173401 63 355 3.0 7.0 0.00 0.00 0.00 70 1009.1
20260503172857 62 54 3.0 8.0 0.00 0.00 0.00 73 1009.1
20260503172357 62 338 3.0 8.0 0.00 0.00 0.00 73 1009.1
20260503171857 61 325 3.0 6.0 0.00 0.00 0.00 74 1009.1
20260503171356 61 327 3.0 7.0 0.00 0.00 0.00 76 1009.0
20260503170356 60 320 2.0 6.0 0.00 0.00 0.00 80 1009.0
20260503150328 56 61 1.0 3.0 0.00 0.00 0.00 85 1008.3
20260503131251 53 293 0.0 1.0 0.00 0.00 0.00 86 1007.3
20260503120221 54 293 0.0 1.0 0.00 0.00 0.00 84 1006.8
20260503110657 54 293 1.0 3.0 0.00 0.00 0.00 82 1006.9
20260503090126 55 294 0.0 0.0 0.00 0.00 0.00 84 1007.0
20260503081111 56 294 0.0 0.0 0.00 0.00 0.00 84 1007.7
20260503080609 56 294 0.0 0.0 0.00 0.00 0.00 84 1007.7
20260503080105 56 294 0.0 1.0 0.00 0.00 0.00 84 1007.7
20260503072548 55 294 1.0 5.0 0.00 0.00 0.00 85 1007.5
20260503072047 55 294 1.0 5.0 0.00 0.00 0.00 86 1007.5
20260503071545 55 294 1.0 3.0 0.00 0.00 0.00 86 1007.5
20260503071045 55 294 1.0 3.0 0.00 0.00 0.00 86 1007.4
20260503070542 55 294 1.0 3.0 0.00 0.00 0.00 86 1007.4
20260503055022 56 294 1.0 4.0 0.00 0.00 0.00 86 1007.0
20260503054515 56 294 1.0 5.0 0.00 0.00 0.00 87 1007.0
20260503054016 56 294 2.0 5.0 0.00 0.00 0.00 87 1007.0
20260503053514 56 257 2.0 4.0 0.00 0.00 0.00 87 1007.0
20260503053015 56 257 2.0 6.0 0.00 0.00 0.00 87 1007.0
20260503052010 55 276 2.0 6.0 0.00 0.00 0.00 87 1006.9
20260503051009 55 274 2.0 3.0 0.00 0.00 0.00 87 1006.9
20260503050007 55 274 0.0 3.0 0.00 0.00 0.00 87 1006.9
20260503045507 55 274 0.0 3.0 0.00 0.00 0.00 87 1006.8
20260503045003 55 274 1.0 3.0 0.00 0.00 0.00 87 1006.8
20260503044457 55 274 1.0 3.0 0.00 0.00 0.00 87 1006.9
20260503043956 55 274 1.0 3.0 0.00 0.00 0.00 87 1006.8
20260503042950 55 274 0.0 2.0 0.00 0.00 0.00 87 1006.8
20260503042449 55 274 0.0 2.0 0.00 0.00 0.00 87 1006.7
20260503041948 55 274 0.0 5.0 0.00 0.00 0.00 87 1006.7
20260503041445 55 274 1.0 5.0 0.00 0.00 0.00 87 1006.7
20260503040941 55 271 1.0 4.0 0.00 0.00 0.00 87 1006.6
20260503040441 55 271 1.0 4.0 0.00 0.00 0.00 87 1006.6
20260503035936 56 271 1.0 3.0 0.00 0.00 0.00 86 1006.6
20260503034935 56 271 0.0 3.0 0.00 0.00 0.00 87 1006.5
20260503034436 56 271 0.0 3.0 0.00 0.00 0.00 87 1006.5
20260503033428 56 271 0.0 2.0 0.00 0.00 0.00 87 1006.5
20260503032426 55 271 0.0 2.0 0.00 0.00 0.00 86 1006.4
20260503031423 55 271 1.0 5.0 0.00 0.00 0.00 85 1006.4
20260503030922 56 271 1.0 5.0 0.00 0.00 0.00 85 1006.3
20260503030416 56 271 1.0 4.0 0.00 0.00 0.00 84 1006.3
20260503025415 56 271 2.0 7.0 0.00 0.00 0.00 83 1006.1
20260503024914 56 271 3.0 7.0 0.00 0.00 0.00 83 1006.1
20260503024410 57 279 3.0 7.0 0.00 0.00 0.00 81 1006.1
20260503023912 57 312 2.0 7.0 0.00 0.00 0.00 80 1005.9
20260503023408 58 317 2.0 5.0 0.00 0.00 0.00 80 1005.9
20260503022913 58 316 2.0 6.0 0.00 0.00 0.00 79 1005.9
20260503022409 59 316 2.0 6.0 0.00 0.00 0.00 78 1006.0
20260503021906 59 316 2.0 6.0 0.00 0.00 0.00 78 1006.0